| time (UTC) | temp F | wind direction | speed MPH | gust MPH | rain 1hr in | rain 24hr in | rain mn in | humidity % | barometer mb |
| 20260505010011 | 57 | 0 | 0.0 | 1.0 | 0.00 | 0.00 | 0.08 | 98 | 1019.6 |
| 20260505005010 | 58 | 0 | 0.0 | 1.0 | 0.00 | 0.00 | 0.08 | 98 | 1019.5 |
| 20260505004010 | 59 | 0 | 0.0 | 2.0 | 0.00 | 0.00 | 0.08 | 98 | 1019.3 |
| 20260505003011 | 59 | 315 | 1.0 | 4.0 | 0.00 | 0.00 | 0.08 | 98 | 1019.2 |
| 20260505002010 | 59 | 315 | 1.0 | 4.0 | 0.00 | 0.00 | 0.08 | 98 | 1019.1 |
| 20260505001109 | 58 | 0 | 0.0 | 2.0 | 0.00 | 0.00 | 0.08 | 98 | 1019.4 |
| 20260505001005 | 58 | 0 | 0.0 | 2.0 | 0.00 | 0.00 | 0.08 | 98 | 1019.4 |
| 20260505000009 | 57 | 315 | 1.0 | 2.0 | 0.00 | 0.00 | 0.08 | 98 | 1019.3 |
| 20260504235010 | 57 | 225 | 0.0 | 2.0 | 0.00 | 0.00 | 0.08 | 98 | 1019.3 |
| 20260504234109 | 57 | 270 | 1.0 | 1.0 | 0.00 | 0.00 | 0.08 | 98 | 1019.3 |
| 20260504234005 | 57 | 270 | 0.0 | 1.0 | 0.00 | 0.00 | 0.08 | 98 | 1019.3 |
| 20260504233009 | 56 | 270 | 0.0 | 0.0 | 0.00 | 0.00 | 0.08 | 98 | 1019.3 |
| 20260504232010 | 56 | 315 | 0.0 | 2.0 | 0.00 | 0.00 | 0.08 | 98 | 1019.3 |
| 20260504231109 | 57 | 270 | 0.0 | 0.0 | 0.00 | 0.00 | 0.08 | 98 | 1019.2 |
| 20260504231005 | 57 | 270 | 0.0 | 1.0 | 0.00 | 0.00 | 0.08 | 98 | 1019.1 |
| 20260504230109 | 57 | 270 | 0.0 | 1.0 | 0.00 | 0.00 | 0.08 | 98 | 1019.0 |
| 20260504230005 | 57 | 270 | 0.0 | 1.0 | 0.00 | 0.00 | 0.08 | 98 | 1018.9 |
| 20260504225009 | 57 | 270 | 0.0 | 1.0 | 0.00 | 0.00 | 0.08 | 98 | 1018.8 |
| 20260504224009 | 58 | 270 | 0.0 | 1.0 | 0.00 | 0.00 | 0.08 | 98 | 1018.7 |
| 20260504223109 | 58 | 270 | 0.0 | 0.0 | 0.00 | 0.00 | 0.08 | 98 | 1018.5 |
| 20260504223005 | 58 | 270 | 0.0 | 1.0 | 0.00 | 0.00 | 0.08 | 98 | 1018.5 |
| 20260504222009 | 58 | 225 | 0.0 | 1.0 | 0.00 | 0.00 | 0.08 | 98 | 1018.4 |
| 20260504221009 | 59 | 225 | 0.0 | 2.0 | 0.00 | 0.00 | 0.08 | 98 | 1018.1 |
| 20260504220109 | 59 | 315 | 0.0 | 1.0 | 0.00 | 0.00 | 0.08 | 98 | 1017.9 |
| 20260504220005 | 59 | 315 | 0.0 | 2.0 | 0.00 | 0.00 | 0.08 | 98 | 1018.0 |
| 20260504215009 | 59 | 315 | 0.0 | 2.0 | 0.00 | 0.00 | 0.08 | 98 | 1017.8 |
| 20260504214009 | 60 | 315 | 0.0 | 2.0 | 0.00 | 0.00 | 0.08 | 98 | 1017.7 |
| 20260504213010 | 60 | 315 | 0.0 | 1.0 | 0.00 | 0.00 | 0.08 | 97 | 1017.7 |
| 20260504212011 | 60 | 315 | 0.0 | 1.0 | 0.00 | 0.00 | 0.08 | 97 | 1017.8 |
| 20260504211010 | 60 | 315 | 0.0 | 1.0 | 0.00 | 0.00 | 0.08 | 96 | 1017.7 |
| 20260504210109 | 61 | 315 | 0.0 | 1.0 | 0.00 | 0.00 | 0.08 | 96 | 1017.7 |
| 20260504210005 | 61 | 315 | 1.0 | 2.0 | 0.00 | 0.00 | 0.08 | 96 | 1017.7 |
| 20260504205009 | 61 | 45 | 1.0 | 2.0 | 0.00 | 0.00 | 0.08 | 94 | 1017.5 |
| 20260504204009 | 62 | 45 | 1.0 | 2.0 | 0.00 | 0.00 | 0.08 | 94 | 1017.3 |
| 20260504203010 | 62 | 270 | 1.0 | 2.0 | 0.00 | 0.00 | 0.08 | 92 | 1016.9 |
| 20260504202010 | 64 | 270 | 2.0 | 4.0 | 0.00 | 0.00 | 0.08 | 88 | 1016.6 |
| 20260504201009 | 66 | 90 | 2.0 | 5.0 | 0.00 | 0.00 | 0.08 | 85 | 1016.1 |
| 20260504200010 | 68 | 270 | 2.0 | 5.0 | 0.00 | 0.00 | 0.08 | 83 | 1015.9 |
| 20260504195110 | 69 | 315 | 1.0 | 1.0 | 0.00 | 0.00 | 0.08 | 82 | 1015.7 |
| 20260504195005 | 69 | 315 | 1.0 | 5.0 | 0.00 | 0.00 | 0.08 | 81 | 1015.7 |
| 20260504193010 | 69 | 0 | 1.0 | 2.0 | 0.00 | 0.00 | 0.08 | 84 | 1015.7 |
| 20260504192011 | 68 | 315 | 1.0 | 4.0 | 0.00 | 0.00 | 0.08 | 83 | 1015.6 |
| 20260504191011 | 68 | 270 | 3.0 | 6.0 | 0.00 | 0.00 | 0.08 | 83 | 1015.6 |
| 20260504190010 | 68 | 225 | 2.0 | 5.0 | 0.00 | 0.00 | 0.08 | 85 | 1015.7 |
| 20260504185011 | 66 | 315 | 2.0 | 6.0 | 0.00 | 0.00 | 0.08 | 88 | 1015.7 |
| 20260504184110 | 65 | 0 | 1.0 | 4.0 | 0.00 | 0.00 | 0.08 | 89 | 1016.0 |
| 20260504183013 | 65 | 270 | 3.0 | 8.0 | 0.00 | 0.00 | 0.08 | 88 | 1015.9 |
| 20260504182019 | 66 | 315 | 3.0 | 6.0 | 0.00 | 0.00 | 0.08 | 87 | 1015.8 |
| 20260504181009 | 64 | 270 | 4.0 | 8.0 | 0.00 | 0.00 | 0.08 | 90 | 1016.1 |
| 20260504175010 | 64 | 315 | 2.0 | 6.0 | 0.00 | 0.00 | 0.08 | 92 | 1016.5 |
| 20260504174010 | 63 | 315 | 2.0 | 6.0 | 0.00 | 0.00 | 0.08 | 93 | 1016.9 |
| 20260504173010 | 63 | 180 | 2.0 | 8.0 | 0.00 | 0.00 | 0.08 | 94 | 1017.1 |
| 20260504172109 | 62 | 180 | 1.0 | 4.0 | 0.00 | 0.00 | 0.08 | 97 | 1017.3 |
| 20260504172005 | 61 | 180 | 1.0 | 4.0 | 0.00 | 0.00 | 0.08 | 97 | 1017.5 |
| 20260504171010 | 61 | 225 | 1.0 | 5.0 | 0.00 | 0.00 | 0.08 | 96 | 1017.9 |
| 20260504170110 | 60 | 180 | 1.0 | 2.0 | 0.00 | 0.00 | 0.08 | 97 | 1017.8 |
| 20260504151011 | 59 | 315 | 0.0 | 4.0 | 0.00 | 0.00 | 0.01 | 95 | 1020.2 |
| 20260504141015 | 61 | 315 | 3.0 | 6.0 | 0.00 | 0.00 | 0.00 | 88 | 1020.2 |
| 20260504140109 | 62 | 45 | 0.0 | 2.0 | 0.00 | 0.00 | 0.00 | 87 | 1020.2 |
| 20260504090108 | 54 | 225 | 3.0 | 5.0 | 0.00 | 0.00 | 0.00 | 98 | 1019.1 |
| 20260504081008 | 54 | 90 | 5.0 | 9.0 | 0.00 | 0.00 | 0.00 | 98 | 1018.3 |
| 20260504080108 | 54 | 90 | 2.0 | 4.0 | 0.00 | 0.00 | 0.00 | 98 | 1018.3 |
| 20260504070108 | 54 | 135 | 9.0 | 13.0 | 0.00 | 0.00 | 0.00 | 98 | 1018.1 |
| 20260504060108 | 54 | 90 | 8.0 | 12.0 | 0.00 | 0.00 | 0.00 | 98 | 1018.5 |
| 20260504050108 | 54 | 90 | 5.0 | 6.0 | 0.00 | 0.00 | 0.00 | 98 | 1019.4 |
| 20260504050004 | 54 | 135 | 3.0 | 8.0 | 0.00 | 0.00 | 0.00 | 98 | 1019.5 |
| 20260504045008 | 54 | 135 | 3.0 | 12.0 | 0.00 | 0.00 | 0.00 | 98 | 1019.7 |
| 20260504044008 | 54 | 225 | 5.0 | 15.0 | 0.00 | 0.00 | 0.00 | 98 | 1020.5 |
| 20260504043108 | 54 | 135 | 11.0 | 15.0 | 0.00 | 0.00 | 0.00 | 98 | 1019.4 |
| 20260504043004 | 54 | 135 | 3.0 | 9.0 | 0.00 | 0.00 | 0.00 | 98 | 1019.6 |
| 20260504042008 | 54 | 225 | 5.0 | 13.0 | 0.00 | 0.00 | 0.00 | 98 | 1020.3 |
| 20260504041008 | 54 | 135 | 7.0 | 16.0 | 0.00 | 0.00 | 0.00 | 98 | 1020.6 |
| 20260504040108 | 53 | 135 | 8.0 | 15.0 | 0.00 | 0.00 | 0.00 | 98 | 1020.2 |
| 20260504035008 | 53 | 135 | 7.0 | 13.0 | 0.00 | 0.00 | 0.00 | 98 | 1020.3 |
| 20260504034008 | 53 | 135 | 7.0 | 12.0 | 0.00 | 0.00 | 0.00 | 98 | 1020.3 |
| 20260504033004 | 53 | 135 | 6.0 | 13.0 | 0.00 | 0.00 | 0.00 | 98 | 1020.7 |
| 20260504032008 | 53 | 135 | 6.0 | 13.0 | 0.00 | 0.00 | 0.00 | 98 | 1020.6 |
| 20260504031008 | 53 | 135 | 5.0 | 11.0 | 0.00 | 0.00 | 0.00 | 98 | 1020.5 |
| 20260504030108 | 53 | 135 | 6.0 | 12.0 | 0.00 | 0.00 | 0.00 | 98 | 1020.4 |
| 20260504030004 | 53 | 135 | 6.0 | 12.0 | 0.00 | 0.00 | 0.00 | 98 | 1020.3 |
| 20260504025008 | 53 | 135 | 8.0 | 15.0 | 0.00 | 0.00 | 0.01 | 98 | 1020.3 |
| 20260504024008 | 53 | 135 | 6.0 | 11.0 | 0.00 | 0.00 | 0.01 | 98 | 1020.7 |
| 20260504023009 | 53 | 135 | 5.0 | 11.0 | 0.00 | 0.00 | 0.01 | 98 | 1021.0 |
| 20260504022010 | 53 | 135 | 4.0 | 8.0 | 0.00 | 0.00 | 0.01 | 98 | 1021.4 |
| 20260504021010 | 53 | 135 | 5.0 | 8.0 | 0.00 | 0.00 | 0.01 | 98 | 1021.4 |
| 20260504020108 | 53 | 135 | 4.0 | 6.0 | 0.00 | 0.00 | 0.01 | 98 | 1021.3 |
| 20260504020004 | 53 | 135 | 4.0 | 8.0 | 0.00 | 0.00 | 0.01 | 98 | 1021.4 |
| 20260504015008 | 53 | 135 | 5.0 | 12.0 | 0.00 | 0.00 | 0.01 | 98 | 1021.5 |
| 20260504014108 | 53 | 135 | 5.0 | 8.0 | 0.00 | 0.00 | 0.01 | 98 | 1021.4 |
| 20260504014004 | 53 | 135 | 4.0 | 8.0 | 0.00 | 0.00 | 0.01 | 98 | 1021.6 |
| 20260504013008 | 53 | 135 | 4.0 | 8.0 | 0.00 | 0.00 | 0.01 | 98 | 1021.4 |
| 20260504012108 | 53 | 135 | 4.0 | 6.0 | 0.00 | 0.00 | 0.01 | 98 | 1021.5 |
| 20260504012004 | 53 | 135 | 5.0 | 11.0 | 0.00 | 0.00 | 0.01 | 98 | 1021.4 |